Hourly Data Report for September 27, 2017

All times are specified in Local Standard Time (LST). Add 1 hour to adjust for Daylight Saving Time where and when it is observed.

IQALUIT CLIMATE
NUNAVUT

63°44'50.000" N
68°32'40.000" W
33.50 m
2402592
71321
XFB

Download Data

Hourly Data (September 2017)
Hourly Data Report for September 27, 2017
Temp Definition
°C
Dew Point Temp Definition
°C
Rel Hum Definition
%
Wind Dir Definition
10's deg

Wind Spd Definition
km/h
Visibility Definition
km
Stn Press Definition
kPa
Hmdx Definition


Wind Chill Definition


Weather Definition


TIME
00:00
01:00 -1.8 -4.7 81 32 28   101.01   -9 LegendNANA
02:00 -2.3 -4.5 85 33 22   101.05   -8 LegendNANA
03:00 -2.4 -4.9 83 33 21   101.06   -8 LegendNANA
04:00 -2.5 -4.8 84 32 15   101.07   -7 LegendNANA
05:00 -2.1 -4.2 86 33 22   101.07   -8 LegendNANA
06:00 -2.0 -4.2 85 33 22   101.06   -8 LegendNANA
07:00 -1.9 -4.4 83 33 23   101.05   -8 LegendNANA
08:00 -1.9 -4.6 82 35 25   101.05   -8 LegendNANA
09:00 -1.5 -4.7 78 35 27   101.01   -8 LegendNANA
10:00 -1.3 -4.4 79 34 26   100.98   -8 LegendNANA
11:00 -0.7 -4.4 76 33 28   100.95   -7 LegendNANA
12:00 -0.8 -4.2 78 34 28   100.92   -7 LegendNANA
13:00 -0.8 -3.8 80 33 27   100.91   -7 LegendNANA
14:00 -0.6 -3.4 82 33 24   100.88   -7 LegendNANA
15:00 -0.2 -3.7 77 32 27   100.86   -6 LegendNANA
16:00 -0.5 -3.6 79 33 29   100.84   -7 LegendNANA
17:00 -0.7 -3.6 81 33 29   100.82   -7 LegendNANA
18:00 -0.8 -3.2 84 34 28   100.82   -7 LegendNANA
19:00 -0.9 -3.2 84 34 27   100.80   -7 LegendNANA
20:00 -1.2 -3.3 86 34 24   100.77   -7 LegendNANA
21:00 -1.4 -3.2 87 34 19   100.75   -7 LegendNANA
22:00 -1.1 -3.4 84 33 20   100.73   -7 LegendNANA
23:00 -1.1 -3.7 82 34 26   100.71   -7 LegendNANA

Notes on Data Quality.

Legend

  • E = Estimated
  • M = Missing
  • NA = Not Available
  • ‡ = Partner data that is not subject to review by the National Climate Archives
Date modified: